Zurück zum Katalog

STARLINK-37904

AktivKommunikationVLEO
NORAD 69947·PAYLOAD·🇺🇸 United States

Gestartet Jul 9, 2026 von Cape Canaveral Space Force Station

Loading…

Nächste Überflüge (nächste 24 Stunden)

TLE

AktuellSource: CelesTrak SupGP

Epoche: Sep 14, 2026, 23:21 UTC

1 69947C 26157E   26257.97340278 -.00003880  00000+0 -11466-3 0  2576
2 69947  53.1599 359.5053 0001183  84.0246 327.2468 15.34388061    18

Verfolge STARLINK-37904 in Echtzeit mit AllMySat

Download on the App Store